OAL170 LGMT-LGIR

Flight info

Callsign OAL170
Flight time 0h 56m
Altitude 32000
Route ATSOV N604 KRO G33 KEA L617 MIL M749 EPALO
Aircraft B737/M-SDE2E3FGHIRWXY/LB1

Departure

Time 2026-05-06 21:14
Airport Mytilene International Airport (LGMT)

Arrival

Time 2026-05-06 22:11
Airport Heraklion International Nikos Kazantzakis Airport (LGIR)
Time Latitude Longitude Altitude Speed Heading
2026-05-06 20:49 39.06163 26.59836 9 ft 0 kts 56°
2026-05-06 21:08 39.06150 26.59812 8 ft 4 kts 52°
2026-05-06 21:08 39.06133 26.59785 9 ft 4 kts 41°
2026-05-06 21:08 39.06111 26.59769 10 ft 4 kts
2026-05-06 21:08 39.06101 26.59771 8 ft 0 kts 328°
2026-05-06 21:11 39.06127 26.59749 9 ft 11 kts 325°
2026-05-06 21:11 39.06158 26.59700 8 ft 11 kts 289°
2026-05-06 21:11 39.06198 26.59606 7 ft 18 kts 299°
2026-05-06 21:12 39.06275 26.59470 6 ft 20 kts 320°
2026-05-06 21:12 39.06390 26.59369 6 ft 20 kts 328°
2026-05-06 21:12 39.06470 26.59304 6 ft 22 kts 327°
2026-05-06 21:12 39.06600 26.59200 7 ft 19 kts 329°
2026-05-06 21:13 39.06702 26.59155 8 ft 5 kts 317°
2026-05-06 21:13 39.06707 26.59126 8 ft 5 kts 258°
2026-05-06 21:13 39.06678 26.59111 8 ft 5 kts 151°
2026-05-06 21:13 39.06656 26.59148 9 ft 5 kts 139°
2026-05-06 21:14 39.06628 26.59178 8 ft 5 kts 146°
2026-05-06 21:14 39.06499 26.59282 7 ft 59 kts 148°
2026-05-06 21:14 39.05889 26.59768 10 ft 143 kts 149°
2026-05-06 21:14 39.04997 26.60556 753 ft 151 kts 144°
2026-05-06 21:15 39.04145 26.61320 1791 ft 158 kts 147°
2026-05-06 21:15 39.03266 26.62108 2823 ft 150 kts 144°
2026-05-06 21:15 39.02364 26.62930 3496 ft 171 kts 149°
2026-05-06 21:15 39.01227 26.63783 3962 ft 206 kts 151°
2026-05-06 21:16 38.99745 26.64256 4264 ft 238 kts 187°
2026-05-06 21:16 38.98204 26.63385 4858 ft 257 kts 222°
2026-05-06 21:16 38.97309 26.61356 5517 ft 270 kts 259°
2026-05-06 21:16 38.97225 26.58935 5949 ft 274 kts 269°
2026-05-06 21:17 38.96898 26.56533 5999 ft 276 kts 245°
2026-05-06 21:17 38.95719 26.54643 6042 ft 277 kts 223°
2026-05-06 21:17 38.94326 26.52912 6029 ft 279 kts 226°
2026-05-06 21:17 38.93007 26.51075 6026 ft 279 kts 229°
2026-05-06 21:18 38.91734 26.49187 6018 ft 279 kts 232°
2026-05-06 21:18 38.90869 26.46980 6012 ft 278 kts 259°
2026-05-06 21:18 38.90923 26.44537 6022 ft 275 kts 285°
2026-05-06 21:18 38.91653 26.42279 6022 ft 274 kts 298°
2026-05-06 21:19 38.92541 26.40118 6012 ft 274 kts 299°
2026-05-06 21:19 38.93429 26.37987 6008 ft 274 kts 298°
2026-05-06 21:19 38.94316 26.35820 6008 ft 274 kts 298°
2026-05-06 21:19 38.95196 26.33640 6005 ft 274 kts 298°
2026-05-06 21:20 38.96069 26.31463 6003 ft 274 kts 298°
2026-05-06 21:20 38.96933 26.29285 5998 ft 273 kts 295°
2026-05-06 21:20 38.97403 26.26921 6066 ft 278 kts 277°
2026-05-06 21:20 38.97581 26.24424 6936 ft 280 kts 276°
2026-05-06 21:21 38.97752 26.21930 7785 ft 280 kts 277°
2026-05-06 21:21 38.97928 26.19446 8004 ft 280 kts 277°
2026-05-06 21:21 38.98114 26.16923 7987 ft 283 kts 277°
2026-05-06 21:21 38.98302 26.14441 7987 ft 281 kts 277°
2026-05-06 21:22 38.98493 26.11939 7983 ft 279 kts 277°
2026-05-06 21:22 38.98683 26.09455 7986 ft 278 kts 277°
2026-05-06 21:22 38.98872 26.06990 7986 ft 277 kts 277°
2026-05-06 21:22 38.98863 26.04517 7972 ft 279 kts 258°
2026-05-06 21:23 38.98053 26.02242 8139 ft 286 kts 236°
2026-05-06 21:23 38.96832 26.00221 9010 ft 292 kts 233°
2026-05-06 21:23 38.95539 25.98195 10138 ft 294 kts 232°
2026-05-06 21:23 38.94200 25.96115 10781 ft 314 kts 232°
2026-05-06 21:24 38.92743 25.93842 11088 ft 342 kts 232°
2026-05-06 21:24 38.91209 25.91444 11883 ft 351 kts 233°
2026-05-06 21:24 38.89650 25.89004 12914 ft 354 kts 233°
2026-05-06 21:24 38.88082 25.86543 13929 ft 357 kts 233°
2026-05-06 21:25 38.86518 25.84089 14788 ft 361 kts 233°
2026-05-06 21:25 38.84915 25.81571 15640 ft 366 kts 233°
2026-05-06 21:25 38.83292 25.79015 16514 ft 370 kts 234°
2026-05-06 21:25 38.81656 25.76437 17376 ft 375 kts 234°
2026-05-06 21:26 38.79999 25.73827 18223 ft 380 kts 234°
2026-05-06 21:26 38.78340 25.71217 18952 ft 384 kts 234°
2026-05-06 21:26 38.76638 25.68543 19684 ft 388 kts 234°
2026-05-06 21:26 38.74921 25.65847 20420 ft 393 kts 235°
2026-05-06 21:27 38.73180 25.63116 21144 ft 397 kts 235°
2026-05-06 21:27 38.71421 25.60359 21856 ft 401 kts 235°
2026-05-06 21:27 38.69645 25.57578 22543 ft 405 kts 236°
2026-05-06 21:27 38.67848 25.54768 23211 ft 410 kts 236°
2026-05-06 21:28 38.66055 25.51965 23833 ft 414 kts 236°
2026-05-06 21:28 38.64215 25.49091 24407 ft 417 kts 236°
2026-05-06 21:28 38.62369 25.46213 25002 ft 420 kts 236°
2026-05-06 21:28 38.60507 25.43312 25579 ft 423 kts 236°
2026-05-06 21:29 38.58634 25.40396 26128 ft 426 kts 236°
2026-05-06 21:29 38.56745 25.37457 26665 ft 429 kts 235°
2026-05-06 21:29 38.54837 25.34492 27189 ft 432 kts 235°
2026-05-06 21:29 38.52942 25.31548 27696 ft 436 kts 235°
2026-05-06 21:30 38.51013 25.28555 28194 ft 439 kts 235°
2026-05-06 21:30 38.49058 25.25526 28679 ft 442 kts 235°
2026-05-06 21:30 38.47096 25.22488 29188 ft 444 kts 235°
2026-05-06 21:30 38.45132 25.19449 29848 ft 442 kts 235°
2026-05-06 21:31 38.43182 25.16437 30513 ft 438 kts 235°
2026-05-06 21:31 38.41243 25.13444 31082 ft 436 kts 235°
2026-05-06 21:31 38.39315 25.10468 31572 ft 435 kts 235°
2026-05-06 21:31 38.37407 25.07525 32019 ft 436 kts 235°
2026-05-06 21:32 38.35476 25.04544 32049 ft 436 kts 235°
2026-05-06 21:32 38.29691 24.95636 32094 ft 434 kts 234°
2026-05-06 21:33 38.25832 24.89706 32084 ft 435 kts 234°
2026-05-06 21:33 38.21991 24.83813 32087 ft 435 kts 234°
2026-05-06 21:34 38.18121 24.77887 32079 ft 435 kts 234°
2026-05-06 21:34 38.14256 24.71991 32084 ft 434 kts 234°
2026-05-06 21:35 38.10369 24.66097 32086 ft 433 kts 234°
2026-05-06 21:35 38.06518 24.60262 32089 ft 433 kts 234°
2026-05-06 21:36 38.02641 24.54397 32092 ft 433 kts 234°
2026-05-06 21:36 37.98087 24.49327 32094 ft 443 kts 216°
2026-05-06 21:37 37.92399 24.46151 32105 ft 450 kts 203°
2026-05-06 21:37 37.86461 24.43597 32095 ft 450 kts 202°
2026-05-06 21:38 37.80578 24.41031 32100 ft 449 kts 203°
2026-05-06 21:38 37.74685 24.38398 32104 ft 449 kts 203°
2026-05-06 21:39 37.68794 24.35752 32102 ft 448 kts 203°
2026-05-06 21:39 37.62909 24.33118 32107 ft 449 kts 203°
2026-05-06 21:40 37.56930 24.30915 32091 ft 454 kts 191°
2026-05-06 21:40 37.50632 24.31097 32096 ft 461 kts 171°
2026-05-06 21:41 37.44362 24.32858 32094 ft 461 kts 169°
2026-05-06 21:41 37.38099 24.34664 32096 ft 460 kts 169°
2026-05-06 21:42 37.31839 24.36380 32098 ft 460 kts 170°
2026-05-06 21:42 37.25606 24.38058 32100 ft 460 kts 170°
2026-05-06 21:43 37.19343 24.39748 31849 ft 461 kts 170°
2026-05-06 21:43 37.16209 24.40609 31596 ft 459 kts 170°
2026-05-06 21:43 37.13126 24.41458 31351 ft 458 kts 170°
2026-05-06 21:44 37.10013 24.42314 31155 ft 456 kts 170°
2026-05-06 21:44 37.06914 24.43163 31107 ft 455 kts 170°
2026-05-06 21:44 37.00737 24.44848 31100 ft 455 kts 170°
2026-05-06 21:45 36.94538 24.46536 31095 ft 455 kts 170°
2026-05-06 21:45 36.88392 24.48209 31096 ft 455 kts 170°
2026-05-06 21:46 36.82203 24.49891 31097 ft 454 kts 170°
2026-05-06 21:46 36.76019 24.51570 31096 ft 454 kts 169°
2026-05-06 21:47 36.69996 24.54028 31108 ft 457 kts 160°
2026-05-06 21:47 36.64079 24.56970 31092 ft 457 kts 160°
2026-05-06 21:48 36.58162 24.59896 31099 ft 457 kts 160°
2026-05-06 21:48 36.52252 24.62756 30472 ft 459 kts 161°
2026-05-06 21:49 36.49277 24.64184 29920 ft 454 kts 161°
2026-05-06 21:49 36.46342 24.65590 29289 ft 449 kts 161°
2026-05-06 21:49 36.43452 24.66973 28721 ft 443 kts 161°
2026-05-06 21:49 36.40619 24.68328 28143 ft 438 kts 161°
2026-05-06 21:50 36.37783 24.69683 27593 ft 433 kts 161°
2026-05-06 21:50 36.34985 24.71020 27034 ft 429 kts 160°
2026-05-06 21:50 36.32210 24.72344 26475 ft 425 kts 160°
2026-05-06 21:50 36.29454 24.73659 25925 ft 421 kts 160°
2026-05-06 21:51 36.26726 24.74959 25381 ft 418 kts 160°
2026-05-06 21:51 36.24014 24.76251 24838 ft 415 kts 160°
2026-05-06 21:51 36.21324 24.77531 24280 ft 413 kts 160°
2026-05-06 21:51 36.18679 24.78790 23733 ft 411 kts 160°
2026-05-06 21:52 36.16015 24.80056 23091 ft 408 kts 160°
2026-05-06 21:52 36.13372 24.81312 22525 ft 405 kts 160°
2026-05-06 21:52 36.10746 24.82559 21961 ft 401 kts 160°
2026-05-06 21:52 36.08155 24.83788 21418 ft 397 kts 160°
2026-05-06 21:53 36.05580 24.85009 20880 ft 394 kts 160°
2026-05-06 21:53 36.03029 24.86215 20357 ft 391 kts 160°
2026-05-06 21:53 36.00522 24.87398 19828 ft 388 kts 160°
2026-05-06 21:53 35.98011 24.88582 19305 ft 386 kts 160°
2026-05-06 21:54 35.95594 24.89721 18783 ft 385 kts 160°
2026-05-06 21:54 35.93098 24.90897 18218 ft 383 kts 160°
2026-05-06 21:54 35.90613 24.92068 17639 ft 381 kts 160°
2026-05-06 21:54 35.88180 24.93213 17096 ft 378 kts 160°
2026-05-06 21:55 35.85705 24.94377 16553 ft 374 kts 160°
2026-05-06 21:55 35.83314 24.95502 16038 ft 371 kts 160°
2026-05-06 21:55 35.80910 24.96631 15516 ft 368 kts 160°
2026-05-06 21:55 35.78523 24.97752 14996 ft 365 kts 160°
2026-05-06 21:56 35.76156 24.98863 14488 ft 362 kts 160°
2026-05-06 21:56 35.73803 24.99966 13954 ft 361 kts 160°
2026-05-06 21:56 35.71461 25.01064 13375 ft 359 kts 160°
2026-05-06 21:56 35.69125 25.02158 12729 ft 358 kts 160°
2026-05-06 21:57 35.66800 25.03249 12193 ft 354 kts 160°
2026-05-06 21:57 35.64529 25.04313 11674 ft 351 kts 160°
2026-05-06 21:57 35.62260 25.05376 11158 ft 347 kts 160°
2026-05-06 21:57 35.60015 25.06427 10649 ft 343 kts 160°
2026-05-06 21:58 35.57813 25.07458 10436 ft 331 kts 160°
2026-05-06 21:58 35.55707 25.08448 10274 ft 317 kts 158°
2026-05-06 21:58 35.53967 25.09996 10123 ft 305 kts 126°
2026-05-06 21:58 35.53199 25.12312 9970 ft 290 kts 95°
2026-05-06 21:59 35.53512 25.14693 9550 ft 285 kts 66°
2026-05-06 21:59 35.54124 25.16988 9170 ft 283 kts 78°
2026-05-06 21:59 35.54245 25.19367 8984 ft 269 kts 92°
2026-05-06 21:59 35.54017 25.21549 8825 ft 247 kts 99°
2026-05-06 22:00 35.53655 25.23525 8683 ft 227 kts 102°
2026-05-06 22:00 35.53258 25.25319 8544 ft 209 kts 105°
2026-05-06 22:00 35.52821 25.26935 8417 ft 194 kts 109°
2026-05-06 22:00 35.52324 25.28436 8144 ft 188 kts 112°
2026-05-06 22:01 35.51758 25.29870 7874 ft 184 kts 116°
2026-05-06 22:01 35.51125 25.31241 7527 ft 184 kts 120°
2026-05-06 22:01 35.50426 25.32554 7203 ft 183 kts 123°
2026-05-06 22:01 35.49665 25.33802 6896 ft 182 kts 127°
2026-05-06 22:02 35.48844 25.34982 6592 ft 180 kts 130°
2026-05-06 22:02 35.48274 25.35719 6385 ft 180 kts 133°
2026-05-06 22:02 35.47370 25.36774 6051 ft 179 kts 136°
2026-05-06 22:02 35.46428 25.37770 5726 ft 178 kts 140°
2026-05-06 22:03 35.45442 25.38691 5410 ft 177 kts 143°
2026-05-06 22:03 35.44405 25.39505 5128 ft 174 kts 150°
2026-05-06 22:03 35.43356 25.40220 5024 ft 174 kts 150°
2026-05-06 22:03 35.42289 25.40943 4955 ft 177 kts 150°
2026-05-06 22:04 35.41222 25.41669 4869 ft 178 kts 150°
2026-05-06 22:04 35.40144 25.42404 4781 ft 177 kts 150°
2026-05-06 22:04 35.39074 25.43135 4681 ft 176 kts 150°
2026-05-06 22:04 35.37987 25.43878 4553 ft 177 kts 150°
2026-05-06 22:05 35.36811 25.44248 4352 ft 181 kts 189°
2026-05-06 22:05 35.35759 25.43526 4168 ft 175 kts 236°
2026-05-06 22:05 35.35223 25.42225 3999 ft 169 kts 246°
2026-05-06 22:05 35.34735 25.40970 3870 ft 152 kts 246°
2026-05-06 22:06 35.34294 25.39825 3497 ft 149 kts 246°
2026-05-06 22:06 35.33892 25.38712 3237 ft 139 kts 248°
2026-05-06 22:06 35.33551 25.37612 3023 ft 140 kts 253°
2026-05-06 22:06 35.33221 25.36479 2950 ft 141 kts 243°
2026-05-06 22:07 35.32684 25.35495 2936 ft 138 kts 237°
2026-05-06 22:07 35.32284 25.34445 2814 ft 135 kts 260°
2026-05-06 22:07 35.32316 25.33276 2716 ft 144 kts 282°
2026-05-06 22:07 35.32595 25.32112 2745 ft 143 kts 288°
2026-05-06 22:08 35.32861 25.30923 2702 ft 146 kts 281°
2026-05-06 22:08 35.33053 25.29666 2551 ft 155 kts 280°
2026-05-06 22:08 35.33201 25.28328 2271 ft 161 kts 276°
2026-05-06 22:08 35.33320 25.26947 1952 ft 166 kts 275°
2026-05-06 22:09 35.33414 25.25553 1517 ft 161 kts 274°
2026-05-06 22:09 35.33513 25.24216 1095 ft 157 kts 274°
2026-05-06 22:09 35.33631 25.22924 815 ft 148 kts 273°
2026-05-06 22:09 35.33722 25.21681 561 ft 144 kts 272°
2026-05-06 22:10 35.33809 25.20470 374 ft 142 kts 271°
2026-05-06 22:10 35.33891 25.19269 165 ft 142 kts 273°
2026-05-06 22:10 35.33971 25.18082 93 ft 133 kts 275°
2026-05-06 22:10 35.34038 25.17101 89 ft 98 kts 276°
2026-05-06 22:11 35.34085 25.16421 93 ft 56 kts 275°
2026-05-06 22:11 35.34123 25.16182 90 ft 14 kts 299°
2026-05-06 22:11 35.34118 25.16144 90 ft 9 kts 213°
2026-05-06 22:11 35.34094 25.16158 90 ft 5 kts 116°
2026-05-06 22:12 35.34087 25.16344 90 ft 26 kts 91°
2026-05-06 22:12 35.34075 25.16554 91 ft 24 kts 92°
2026-05-06 22:12 35.34058 25.16765 89 ft 26 kts 104°
2026-05-06 22:12 35.33971 25.16946 90 ft 24 kts 120°
2026-05-06 22:13 35.33937 25.17137 89 ft 25 kts 94°
2026-05-06 22:13 35.33919 25.17406 90 ft 32 kts 95°
2026-05-06 22:13 35.33908 25.17564 90 ft 12 kts 93°
2026-05-06 22:13 35.33889 25.17612 91 ft 2 kts 150°
2026-05-06 22:14 35.33863 25.17619 90 ft 7 kts 173°
2026-05-06 22:14 35.33809 25.17617 90 ft 0 kts 195°
2026-05-06 22:14 35.33795 25.17601 90 ft 7 kts 231°
2026-05-06 22:14 35.33797 25.17567 90 ft 8 kts 276°
2026-05-06 22:15 35.33797 25.17561 90 ft 0 kts 272°